Simultaneous Nadir Overpasses (SNOs) Predictions

Prediction of SNOs between LANDSAT-8 and NOAA-19 Satellite Orbit:

Table of predicted SNOs for the next 14.0 days since TLE Epoch: 1/28/2024
Index Date (LANDSAT-8) Time (LANDSAT-8) Lat,Lon (LANDSAT-8) SZA (LANDSAT-8 ) Date (NOAA-19) Time (NOAA-19) Lat,Lon (NOAA-19) SZA (NOAA-19 ) Distance(km) Time Diff (sec)
1 01/29/2024 23:54:18 -80.86, 37.53 79.93 01/29/2024 23:54:22 -80.86, 37.66 79.92 2.28 4
2 02/01/2024 06:17:30 -80.87, -58.22 80.55 02/01/2024 06:17:31 -80.86, -58.23 80.56 0.92 1
3 02/03/2024 12:40:42 -80.86,-154.11 81.22 02/03/2024 12:40:40 -80.85,-154.21 81.24 1.93 2
4 02/05/2024 19:03:54 -80.84, 109.86 81.94 02/05/2024 19:03:49 -80.84, 109.73 81.95 2.26 5
5 02/08/2024 01:27:05 -80.84, 14.03 82.64 02/08/2024 01:26:57 -80.84, 13.96 82.65 1.33 8



Historial Predications of SNOs between LANDSAT-8 and NOAA-19
